SS-520-5 R/B (43202 NORAD) Tracking and Keplerian Element Data

This shows tracking and keplerian element data for the satellite.

Feedback or suggestion? Click here.




ElementValue
Catalog43202
NameSS-520-5 R/B
Epoch Orbit396
Epoch Day63.39849638
Epoch Year2018
RAAN109.954
Inclination30.9141
Eccentricity0.1083301
Argument of Perigee313.2433
Mean Anonmoly148.349
Mean Motion13.75056003
Decay Rate0.00573471
L11 43202U 18016B 18063.39849638 .00573471 -31742-5 11312-2 0 9995
L22 43202 30.9141 109.9540 1083301 313.2433 148.3490 13.75056003 3961



Live tracking and technical data element details for SS-520-5 R/B (NORAD 43202). SS-520-5 R/B can be tracked NOW for your location showing map with azimuth and elevation plus other details from your city location.







IsCatalogInMostPopularTable: catalog: 43202, numindb: 590
Update: records affected: 1



GetName: 43202 SS-520-5 R/B

Hit Count: updated at: Sat, 24 May 2025 17:12:31 GMT